This is the latest recevied weather packets stored in our database for station/object W4DHW-4. If no packets are shown the sender has not sent any weather packets the latest 10 day(s).
| Time | Temp. | Humidity | Pressure | Rain* | Wind** | Luminosity | Snow |
|---|---|---|---|---|---|---|---|
| 1777743289 | 15° C | 39% | 1013.6 hPa | 0 mm | - | 966 W/m² | - |
| 1777742987 | 15° C | 39% | 1013.6 hPa | 0 mm | - | 584 W/m² | - |
| 1777742684 | 14.44° C | 40% | 1013.9 hPa | 0 mm | - | 542 W/m² | - |
| 1777742380 | 14.44° C | 39% | 1013.6 hPa | 0 mm | - | 630 W/m² | - |
| 1777742076 | 13.89° C | 40% | 1013.8 hPa | 0 mm | - | 809 W/m² | - |
| 1777741774 | 13.89° C | 40% | 1013.8 hPa | 0 mm | - | 827 W/m² | - |
| 1777741470 | 14.44° C | 42% | 1014 hPa | 0 mm | - | 845 W/m² | - |
| 1777741166 | 13.89° C | 42% | 1014.1 hPa | 0 mm | - | 809 W/m² | - |
| 1777740864 | 13.89° C | 42% | 1014.1 hPa | 0 mm | - | 820 W/m² | - |
| 1777740560 | 13.89° C | 45% | 1014.3 hPa | 0 mm | - | 807 W/m² | - |
| 1777740257 | 13.33° C | 43% | 1014.4 hPa | 0 mm | - | 812 W/m² | - |
| 1777739953 | 13.33° C | 43% | 1014.4 hPa | 0 mm | - | 792 W/m² | - |
| 1777739649 | 13.33° C | 43% | 1014.4 hPa | 0 mm | - | 798 W/m² | - |
| 1777739348 | 12.78° C | 45% | 1014.7 hPa | 0 mm | - | 851 W/m² | - |
| 1777739044 | 13.89° C | 44% | 1014.7 hPa | 0 mm | - | 856 W/m² | - |
| 1777738741 | 12.78° C | 44% | 1014.8 hPa | 0 mm | - | 570 W/m² | - |
| 1777738437 | 12.78° C | 46% | 1014.9 hPa | 0 mm | - | 866 W/m² | - |
| 1777738135 | 12.78° C | 46% | 1014.9 hPa | 0 mm | - | 728 W/m² | - |
| 1777737833 | 12.78° C | 45% | 1014.9 hPa | 0 mm | - | 806 W/m² | - |
| 1777737532 | 12.78° C | 47% | 1015 hPa | 0 mm | - | 689 W/m² | - |
| 1777737229 | 11.67° C | 47% | 1015 hPa | 0 mm | - | 775 W/m² | - |
| 1777736925 | 12.22° C | 49% | 1014.7 hPa | 0 mm | - | 762 W/m² | - |
| 1777736316 | 11.67° C | 47% | 1015 hPa | 0 mm | - | 441 W/m² | - |
| 1777736013 | 11.67° C | 47% | 1015.1 hPa | 0 mm | - | 328 W/m² | - |
| 1777735711 | 11.67° C | 48% | 1015.1 hPa | 0 mm | - | 271 W/m² | - |
* Rain latest hour (hover to see other rain measurements)
** Current wind speed in m/s (hover to see current wind gust speed)